Zurück zum Katalog

COSMOS 252 DEB

AktivLEO
NORAD 19479·DEBRIS·🇷🇺 Russia

Gestartet Nov 1, 1968 von Baikonur Cosmodrome

Loading…

Nächste Überflüge (nächste 24 Stunden)

TLE

AktuellSource: Space-Track

Epoche: Sep 13, 2026, 12:39 UTC

1 19479U 68097ET  26256.52735416  .00003736  00000-0  64108-3 0  9995
2 19479  62.7899 193.7796 0576637  90.0026 276.7064 13.97519744904719

Verfolge COSMOS 252 DEB in Echtzeit mit AllMySat

Download on the App Store